timestamp,wind_dir_avg,wind_spd_avg,wind_spd_max_dir,wind_spd_gust,battery_voltage,lat,long
2021-09-22 00:04:00+00:00,219.0,3.69,220.0,4.39,12.65,47.59359,-54.27349
2021-09-22 00:14:01+00:00,220.0,4.07,219.0,4.62,12.65,47.59359,-54.27349
2021-09-22 00:24:01+00:00,223.0,4.08,232.0,4.76,12.65,47.59359,-54.27349
2021-09-22 00:34:01+00:00,220.0,3.83,216.0,5.06,12.65,47.59359,-54.27349
2021-09-22 00:44:01+00:00,210.0,4.55,213.0,5.11,12.65,47.59359,-54.27349
2021-09-22 00:54:01+00:00,215.0,4.19,218.0,4.91,12.65,47.59359,-54.27349
2021-09-22 01:04:01+00:00,214.0,4.19,216.0,5.3,12.65,47.59359,-54.27349
2021-09-22 01:14:01+00:00,223.0,4.05,229.0,4.81,12.65,47.59359,-54.27349
2021-09-22 01:24:01+00:00,228.0,5.55,227.0,6.39,12.65,47.59359,-54.27349
2021-09-22 01:34:01+00:00,229.0,5.07,232.0,5.79,12.65,47.59359,-54.27349
2021-09-22 01:44:01+00:00,228.0,4.79,231.0,5.82,12.65,47.59359,-54.27349
2021-09-22 01:54:01+00:00,233.0,5.78,239.0,6.83,12.65,47.59359,-54.27349
2021-09-22 02:04:01+00:00,227.0,5.42,222.0,6.46,12.65,47.59359,-54.27349
2021-09-22 02:14:01+00:00,227.0,4.91,226.0,5.79,12.57,47.59359,-54.27349
2021-09-22 02:24:01+00:00,230.0,5.02,233.0,5.99,12.57,47.59359,-54.27349
2021-09-22 02:34:01+00:00,221.0,4.8,220.0,5.91,12.57,47.59359,-54.27349
2021-09-22 02:44:01+00:00,227.0,4.57,228.0,5.27,12.57,47.59359,-54.27349
2021-09-22 02:54:01+00:00,226.0,4.46,231.0,5.77,12.57,47.59359,-54.27349
2021-09-22 03:04:01+00:00,231.0,4.76,228.0,5.39,12.57,47.59359,-54.27349
2021-09-22 03:14:01+00:00,239.0,5.03,240.0,5.52,12.57,47.59359,-54.27349
2021-09-22 03:24:01+00:00,230.0,4.21,231.0,5.08,12.57,47.59359,-54.27349
2021-09-22 03:34:01+00:00,227.0,3.85,221.0,4.87,12.57,47.59359,-54.27349
2021-09-22 03:44:01+00:00,231.0,4.43,228.0,5.07,12.57,47.59359,-54.27349
2021-09-22 03:54:01+00:00,239.0,4.91,235.0,5.58,12.57,47.59359,-54.27349
2021-09-22 04:04:01+00:00,237.0,5.07,246.0,5.82,12.57,47.59359,-54.27349
2021-09-22 04:14:00+00:00,244.0,4.94,243.0,6.14,12.57,47.59359,-54.27349
2021-09-22 04:24:00+00:00,245.0,4.93,250.0,5.86,12.57,47.59359,-54.27349
2021-09-22 04:34:00+00:00,237.0,3.26,241.0,3.66,12.57,47.59359,-54.27349
2021-09-22 04:44:00+00:00,247.0,4.11,250.0,5.02,12.57,47.59359,-54.27349
2021-09-22 04:54:00+00:00,230.0,3.0,237.0,3.78,12.57,47.59359,-54.27349
2021-09-22 05:04:00+00:00,245.0,4.65,244.0,5.52,12.57,47.59359,-54.27349
2021-09-22 05:14:01+00:00,232.0,3.02,230.0,3.96,12.57,47.59359,-54.27349
2021-09-22 05:24:01+00:00,272.0,1.99,261.0,2.79,12.57,47.59359,-54.27349
2021-09-22 05:34:01+00:00,253.0,3.47,261.0,4.76,12.57,47.59359,-54.27349
2021-09-22 05:44:01+00:00,266.0,2.39,268.0,3.86,12.57,47.59359,-54.27349
2021-09-22 05:54:01+00:00,254.0,4.4,253.0,6.14,12.57,47.59359,-54.27349
2021-09-22 06:04:01+00:00,261.0,2.52,270.0,3.19,12.57,47.59359,-54.27349
2021-09-22 06:14:01+00:00,277.0,3.79,270.0,4.81,12.57,47.59359,-54.27349
2021-09-22 06:24:01+00:00,234.0,2.89,250.0,4.23,12.57,47.59359,-54.27349
2021-09-22 06:34:01+00:00,203.0,2.33,196.0,3.74,12.57,47.59359,-54.27349
2021-09-22 06:44:01+00:00,204.0,3.11,193.0,4.29,12.57,47.59359,-54.27349
2021-09-22 06:54:01+00:00,232.0,3.68,226.0,5.24,12.57,47.59359,-54.27349
2021-09-22 07:04:01+00:00,231.0,3.27,216.0,4.22,12.57,47.59359,-54.27349
2021-09-22 07:14:00+00:00,257.0,6.54,255.0,7.99,12.49,47.59359,-54.27349
2021-09-22 07:24:00+00:00,246.0,4.25,250.0,5.52,12.49,47.59359,-54.27349
2021-09-22 07:34:00+00:00,232.0,4.28,221.0,5.46,12.49,47.59359,-54.27349
2021-09-22 07:44:00+00:00,247.0,4.85,250.0,5.68,12.49,47.59359,-54.27349
2021-09-22 07:54:00+00:00,235.0,3.09,240.0,3.6,12.49,47.59359,-54.27349
2021-09-22 08:04:00+00:00,246.0,3.62,250.0,4.4,12.49,47.59359,-54.27349
2021-09-22 08:14:01+00:00,256.0,5.99,257.0,6.99,12.49,47.59359,-54.27349
2021-09-22 08:24:01+00:00,239.0,3.91,244.0,5.04,12.49,47.59359,-54.27349
2021-09-22 08:34:01+00:00,211.0,4.71,213.0,5.25,12.49,47.59359,-54.27349
2021-09-22 08:44:01+00:00,208.0,5.07,210.0,6.05,12.49,47.59359,-54.27349
2021-09-22 08:54:01+00:00,203.0,4.71,206.0,5.4,12.49,47.59359,-54.27349
2021-09-22 09:04:01+00:00,207.0,4.43,208.0,4.85,12.49,47.59359,-54.27349
2021-09-22 09:14:00+00:00,215.0,4.46,216.0,4.99,12.41,47.59359,-54.27349
2021-09-22 09:24:00+00:00,222.0,5.58,226.0,6.21,12.41,47.59359,-54.27349
2021-09-22 09:34:00+00:00,219.0,5.43,218.0,6.1,12.41,47.59359,-54.27349
2021-09-22 09:44:00+00:00,226.0,5.15,220.0,6.7,12.41,47.59359,-54.27349
2021-09-22 09:54:00+00:00,219.0,4.93,217.0,5.9,12.41,47.59359,-54.27349
2021-09-22 10:04:00+00:00,214.0,4.52,215.0,5.19,12.41,47.59359,-54.27349
2021-09-22 10:14:01+00:00,212.0,4.36,214.0,4.83,13.13,47.59359,-54.27349
2021-09-22 10:24:01+00:00,208.0,3.79,210.0,4.23,13.13,47.59359,-54.27349
2021-09-22 10:34:01+00:00,218.0,3.3,229.0,4.01,13.13,47.59359,-54.27349
2021-09-22 10:44:01+00:00,229.0,3.38,221.0,3.94,13.13,47.59359,-54.27349
2021-09-22 10:54:01+00:00,240.0,3.48,240.0,4.27,13.13,47.59359,-54.27349
2021-09-22 11:04:01+00:00,236.0,3.75,238.0,4.27,13.13,47.59359,-54.27349
2021-09-22 11:14:01+00:00,240.0,2.79,240.0,3.72,13.84,47.59359,-54.27349
2021-09-22 11:24:01+00:00,221.0,2.95,220.0,3.32,13.84,47.59359,-54.27349
2021-09-22 11:34:01+00:00,222.0,4.49,221.0,5.27,13.84,47.59359,-54.27349
2021-09-22 11:44:01+00:00,227.0,4.85,225.0,5.65,13.84,47.59359,-54.27349
2021-09-22 11:54:01+00:00,232.0,5.41,230.0,6.21,13.84,47.59359,-54.27349
2021-09-22 12:04:01+00:00,241.0,5.52,241.0,6.05,13.84,47.59359,-54.27349
2021-09-22 12:14:01+00:00,236.0,5.97,242.0,6.77,14.24,47.59359,-54.27349
2021-09-22 12:24:01+00:00,249.0,5.53,256.0,6.51,14.24,47.59359,-54.27349
2021-09-22 12:34:01+00:00,258.0,5.12,253.0,5.64,14.24,47.59359,-54.27349
2021-09-22 12:44:01+00:00,263.0,5.24,263.0,6.06,14.24,47.59359,-54.27349
2021-09-22 12:54:01+00:00,264.0,6.13,266.0,7.03,14.24,47.59359,-54.27349
2021-09-22 13:04:01+00:00,261.0,4.84,261.0,5.72,14.24,47.59359,-54.27349
2021-09-22 13:14:01+00:00,256.0,4.8,257.0,5.53,13.68,47.59359,-54.27349
2021-09-22 13:24:01+00:00,209.0,4.85,215.0,5.45,13.68,47.59359,-54.27349
2021-09-22 13:34:01+00:00,221.0,4.71,221.0,5.47,13.68,47.59359,-54.27349
2021-09-22 13:44:01+00:00,212.0,3.42,207.0,4.06,13.68,47.59359,-54.27349
2021-09-22 13:54:01+00:00,196.0,4.64,197.0,5.37,13.68,47.59359,-54.27349
2021-09-22 14:04:01+00:00,202.0,3.9,205.0,4.4,13.68,47.59359,-54.27349
2021-09-22 14:14:01+00:00,213.0,5.06,214.0,5.63,13.6,47.59359,-54.27349
2021-09-22 14:24:01+00:00,202.0,5.21,195.0,7.87,13.6,47.59359,-54.27349
2021-09-22 14:34:01+00:00,207.0,5.16,205.0,5.65,13.6,47.59359,-54.27349
2021-09-22 14:44:01+00:00,203.0,6.35,207.0,7.26,13.6,47.59359,-54.27349
2021-09-22 14:54:01+00:00,206.0,5.64,213.0,6.28,13.6,47.59359,-54.27349
2021-09-22 15:04:01+00:00,214.0,5.66,215.0,6.6,13.6,47.59359,-54.27349
2021-09-22 15:14:01+00:00,209.0,6.79,212.0,7.18,14.32,47.59359,-54.27349
2021-09-22 15:24:01+00:00,212.0,6.91,217.0,7.62,14.32,47.59359,-54.27349
2021-09-22 15:34:01+00:00,208.0,6.95,209.0,7.7,14.32,47.59359,-54.27349
2021-09-22 15:44:01+00:00,210.0,6.83,214.0,7.37,14.32,47.59359,-54.27349
2021-09-22 15:54:01+00:00,216.0,5.99,216.0,6.56,14.32,47.59359,-54.27349
2021-09-22 16:04:01+00:00,212.0,6.58,214.0,7.32,14.32,47.59359,-54.27349
2021-09-22 16:14:01+00:00,213.0,6.78,212.0,7.89,13.68,47.59359,-54.27349
2021-09-22 16:24:01+00:00,218.0,7.38,221.0,8.49,13.68,47.59359,-54.27349
2021-09-22 16:34:01+00:00,220.0,7.23,217.0,8.39,13.68,47.59359,-54.27349
2021-09-22 16:44:01+00:00,217.0,6.66,216.0,7.54,13.68,47.59359,-54.27349
2021-09-22 16:54:01+00:00,220.0,6.91,220.0,7.73,13.68,47.59359,-54.27349
2021-09-22 17:04:01+00:00,218.0,6.04,216.0,7.32,13.68,47.59359,-54.27349
2021-09-22 17:14:01+00:00,221.0,6.07,224.0,6.75,14.24,47.59359,-54.27349
2021-09-22 17:24:01+00:00,227.0,5.17,225.0,6.35,14.24,47.59359,-54.27349
2021-09-22 17:34:01+00:00,227.0,5.94,237.0,7.13,14.24,47.59359,-54.27349
2021-09-22 17:44:01+00:00,225.0,5.31,221.0,5.95,14.24,47.59359,-54.27349
2021-09-22 17:54:01+00:00,215.0,5.83,216.0,6.24,14.24,47.59359,-54.27349
2021-09-22 18:04:01+00:00,207.0,6.3,209.0,7.33,14.24,47.59359,-54.27349
2021-09-22 18:14:01+00:00,204.0,6.56,204.0,7.42,14.0,47.59359,-54.27349
2021-09-22 18:24:01+00:00,203.0,6.54,207.0,7.59,14.0,47.59359,-54.27349
2021-09-22 18:34:01+00:00,204.0,5.75,206.0,6.75,14.0,47.59359,-54.27349
2021-09-22 18:44:01+00:00,199.0,6.04,198.0,6.75,14.0,47.59359,-54.27349
2021-09-22 18:54:01+00:00,203.0,4.29,211.0,5.06,14.0,47.59359,-54.27349
2021-09-22 19:04:01+00:00,209.0,6.2,213.0,7.16,14.0,47.59359,-54.27349
2021-09-22 19:14:01+00:00,205.0,6.19,210.0,6.99,13.92,47.59359,-54.27349
2021-09-22 19:24:01+00:00,203.0,6.3,205.0,7.13,13.92,47.59359,-54.27349
2021-09-22 19:34:01+00:00,205.0,4.88,206.0,5.91,13.92,47.59359,-54.27349
2021-09-22 19:44:01+00:00,213.0,3.49,211.0,4.2,13.92,47.59359,-54.27349
2021-09-22 19:54:01+00:00,308.0,2.24,304.0,3.53,13.92,47.59359,-54.27349
2021-09-22 20:04:01+00:00,260.0,3.5,263.0,3.8,13.92,47.59359,-54.27349
2021-09-22 20:14:01+00:00,211.0,3.03,206.0,3.42,13.68,47.59359,-54.27349
2021-09-22 20:24:01+00:00,220.0,3.94,222.0,4.45,13.68,47.59359,-54.27349
2021-09-22 20:34:01+00:00,231.0,4.25,234.0,5.46,13.68,47.59359,-54.27349
2021-09-22 20:44:01+00:00,212.0,4.12,206.0,4.71,13.68,47.59359,-54.27349
2021-09-22 20:54:01+00:00,229.0,5.26,226.0,5.96,13.68,47.59359,-54.27349
2021-09-22 21:04:01+00:00,215.0,4.7,216.0,5.8,13.68,47.59359,-54.27349
2021-09-22 21:14:01+00:00,222.0,4.71,220.0,5.59,13.29,47.59359,-54.27349
2021-09-22 21:24:01+00:00,229.0,4.46,230.0,5.13,13.29,47.59359,-54.27349
2021-09-22 21:34:01+00:00,237.0,5.19,238.0,5.94,13.29,47.59359,-54.27349
2021-09-22 21:44:01+00:00,234.0,5.1,241.0,5.57,13.29,47.59359,-54.27349
2021-09-22 21:54:01+00:00,247.0,4.24,244.0,4.72,13.29,47.59359,-54.27349
2021-09-22 22:04:01+00:00,265.0,4.11,267.0,4.96,13.29,47.59359,-54.27349
2021-09-22 22:14:01+00:00,258.0,2.63,250.0,3.13,12.81,47.59359,-54.27349
2021-09-22 22:24:01+00:00,270.0,5.23,279.0,5.66,12.81,47.59359,-54.27349
2021-09-22 22:34:01+00:00,276.0,4.15,277.0,4.72,12.81,47.59359,-54.27349
2021-09-22 22:44:01+00:00,275.0,5.05,267.0,6.2,12.81,47.59359,-54.27349
2021-09-22 22:54:01+00:00,279.0,6.99,279.0,7.75,12.81,47.59359,-54.27349
2021-09-22 23:04:01+00:00,278.0,6.87,283.0,8.05,12.81,47.59359,-54.27349
2021-09-22 23:14:01+00:00,274.0,7.65,281.0,8.16,12.65,47.59359,-54.27349
2021-09-22 23:24:01+00:00,263.0,5.87,262.0,6.38,12.65,47.59359,-54.27349
2021-09-22 23:34:01+00:00,260.0,6.29,267.0,6.99,12.65,47.59359,-54.27349
2021-09-22 23:44:01+00:00,262.0,6.92,263.0,8.13,12.65,47.59359,-54.27349
2021-09-22 23:54:01+00:00,256.0,6.06,256.0,6.58,12.65,47.59359,-54.27349
